Weather History for Coldwater, MI

Change the Weather History Date:

Sunday, January 27, 2013

  Actual Average (KJYM) Record (KJYM)
Temperature  
Mean Temperature 22 °F -  
Max Temperature 32 °F 29 °F 55 °F (2002)
Min Temperature 14 °F 13 °F -17 °F (1987)
Degree Days  
Heating Degree Days 43    
Moisture  
Dew Point 18 °F    
Average Humidity 77    
Maximum Humidity 93    
Minimum Humidity 59    
Precipitation  
Precipitation 0.00 in - - ()
Sea Level Pressure  
Sea Level Pressure 30.29 in    
Wind  
Wind Speed 5 mph (SE)    
Max Wind Speed 16 mph    
Max Gust Speed 25 mph    
Visibility 8 miles    
Events Snow    
Averages and records for this station are not official NWS values.
T = Trace of Precipitation, MM = Missing Value Source: NWS Daily Summary

Daily Weather History Graph

Daily Weather History Graph

Search for Another Location

Airport:

Trip Planner

Search our weather history database for the weather conditions in past years. The results will help you decide how hot, cold, wet, or windy it might be!

Date:

Astronomy

Jan. 27, 2013 Rise Set
Actual Time 7:57 AM EST 5:49 PM EST
Civil Twilight 7:27 AM EST 6:19 PM EST
Nautical Twilight 6:53 AM EST 6:52 PM EST
Astronomical Twilight 6:20 AM EST 7:25 PM EST
Moon 6:44 PM EST (1/27) 7:48 AM EST (1/27)
Length of Visible Light 10h 51m
Length of Day
9h 51m
Full, 100% of the Moon is Illuminated
Jan 27
Full
Feb 3
Last Quarter
Feb 10
New
Feb 17
First Quarter
Feb 25
Full

Hourly Weather History & Observations

Time (EST) Temp. Windchill Dew Point Humidity Pressure Visibility Wind Dir Wind Speed Gust Speed Precip Events Conditions
12:18 AM 15.8 °F - 12.2 °F 86% 30.42 in 10.0 mi Calm Calm - N/A   Clear
12:36 AM 15.8 °F - 12.2 °F 86% 30.42 in 10.0 mi Calm Calm - N/A   Clear
12:56 AM 15.8 °F - 12.2 °F 86% 30.40 in 10.0 mi Calm Calm - N/A   Clear
1:17 AM 14.0 °F 6.5 °F 12.2 °F 93% 30.39 in 10.0 mi SE 4.6 mph - N/A   Clear
1:38 AM 14.0 °F - 12.2 °F 93% 30.40 in 10.0 mi Calm Calm - N/A   Clear
1:56 AM - - - N/A% - 10.0 mi SSE 4.6 mph - N/A   Clear
2:36 AM - - - N/A% - 0.9 mi North - - N/A   Unknown
2:56 AM 15.8 °F 10.2 °F 12.2 °F 86% 30.39 in 10.0 mi SSE 3.5 mph - N/A   Scattered Clouds
3:36 AM 15.8 °F - 12.2 °F 86% 30.39 in 10.0 mi Calm Calm - N/A   Overcast
4:00 AM 17.6 °F 10.7 °F 12.2 °F 79% 30.39 in 10.0 mi ESE 4.6 mph - N/A   Mostly Cloudy
4:20 AM - - - N/A% - 10.0 mi South 4.6 mph - N/A   Unknown
4:36 AM 19.4 °F 12.8 °F 14.0 °F 80% 30.39 in 10.0 mi South 4.6 mph - N/A   Overcast
4:56 AM 19.4 °F 12.8 °F 14.0 °F 80% 30.39 in 10.0 mi SSE 4.6 mph - N/A   Overcast
5:16 AM 19.4 °F 12.8 °F 14.0 °F 80% 30.39 in 10.0 mi SE 4.6 mph - N/A   Mostly Cloudy
5:58 AM 21.2 °F 14.9 °F 14.0 °F 74% 30.39 in 10.0 mi SE 4.6 mph - N/A   Overcast
6:37 AM 21.2 °F 16.4 °F 15.8 °F 80% 30.40 in 10.0 mi SSE 3.5 mph - N/A   Overcast
6:56 AM 21.2 °F 14.9 °F 15.8 °F 80% 30.39 in 10.0 mi SE 4.6 mph - N/A   Mostly Cloudy
7:16 AM 19.4 °F 12.8 °F 14.0 °F 80% 30.38 in 10.0 mi SE 4.6 mph - N/A   Scattered Clouds
7:40 AM 19.4 °F 12.8 °F 15.8 °F 86% 30.38 in 10.0 mi ESE 4.6 mph - N/A   Mostly Cloudy
7:56 AM - - - N/A% - - SSE 3.5 mph - N/A   Unknown
8:16 AM 21.2 °F 12.6 °F 15.8 °F 80% 30.39 in 10.0 mi SSE 6.9 mph - N/A   Mostly Cloudy
9:56 AM 23.0 °F 13.9 °F 14.0 °F 68% 30.39 in 10.0 mi SSE 8.1 mph - N/A   Scattered Clouds
10:36 AM 24.8 °F 15.3 °F 14.0 °F 64% 30.38 in 10.0 mi SSE 9.2 mph 17.3 mph N/A   Scattered Clouds
10:59 AM 24.8 °F 15.3 °F 14.0 °F 64% 30.38 in 10.0 mi SSE 9.2 mph - N/A   Mostly Cloudy
11:18 AM 24.8 °F 14.6 °F 14.0 °F 64% 30.39 in 10.0 mi SSE 10.4 mph - N/A   Mostly Cloudy
11:37 AM 26.6 °F 16.8 °F 14.0 °F 59% 30.40 in 10.0 mi South 10.4 mph - N/A   Mostly Cloudy
12:02 PM - - - N/A% - 10.0 mi SSE 8.1 mph - N/A   Overcast
12:17 PM - - - N/A% - - North - - N/A   Unknown
12:36 PM 26.6 °F 18.2 °F 15.8 °F 64% 30.36 in 10.0 mi SSE 8.1 mph - N/A   Overcast
12:58 PM 26.6 °F 16.8 °F - N/A% - 10.0 mi SSE 10.4 mph - N/A   Overcast
1:16 PM 26.6 °F 18.2 °F 17.6 °F 69% 30.34 in 10.0 mi SSE 8.1 mph - N/A   Overcast
1:36 PM 26.6 °F 20.0 °F 17.6 °F 69% 30.33 in 10.0 mi SSE 5.8 mph - N/A   Overcast
1:56 PM 28.4 °F 21.2 °F 17.6 °F 64% 30.33 in 10.0 mi South 6.9 mph - N/A   Overcast
2:36 PM 28.4 °F 19.1 °F 19.4 °F 69% 30.28 in 10.0 mi ESE 10.4 mph - N/A   Overcast
2:56 PM 28.4 °F 19.1 °F 19.4 °F 69% 30.26 in 10.0 mi ESE 10.4 mph - N/A   Overcast
3:16 PM 28.4 °F 19.1 °F 19.4 °F 69% 30.25 in 10.0 mi ESE 10.4 mph - N/A   Overcast
3:38 PM 28.4 °F 19.7 °F 19.4 °F 69% 30.25 in 10.0 mi SE 9.2 mph 16.1 mph N/A   Overcast
3:57 PM 28.4 °F 22.2 °F 19.4 °F 69% 30.25 in 10.0 mi SSE 5.8 mph - N/A   Overcast
4:40 PM 28.4 °F 19.7 °F 19.4 °F 69% 30.27 in 7.0 mi SE 9.2 mph - N/A   Overcast
4:56 PM 28.4 °F 20.4 °F 19.4 °F 69% 30.26 in 7.0 mi ESE 8.1 mph - N/A   Overcast
5:16 PM 28.4 °F 17.0 °F 19.4 °F 69% 30.21 in 7.0 mi East 15.0 mph - N/A   Overcast
5:37 PM 28.4 °F 19.1 °F 19.4 °F 69% 30.24 in 7.0 mi ESE 10.4 mph - N/A   Overcast
5:56 PM 28.4 °F 20.4 °F 19.4 °F 69% 30.24 in 10.0 mi East 8.1 mph - N/A   Overcast
6:17 PM 28.4 °F 19.1 °F 21.2 °F 74% 30.23 in 7.0 mi ESE 10.4 mph - N/A   Overcast
7:16 PM 26.6 °F 14.7 °F 21.2 °F 80% 30.20 in 7.0 mi SE 15.0 mph 20.7 mph N/A   Overcast
7:40 PM 28.4 °F 21.2 °F 21.2 °F 74% 30.25 in 7.0 mi SSE 6.9 mph - N/A   Overcast
8:17 PM 26.6 °F 15.2 °F 24.8 °F 93% 30.14 in 1.2 mi SE 13.8 mph 21.9 mph N/A Snow Snow
8:36 PM 28.4 °F 16.6 °F 24.8 °F 86% 30.14 in 5.0 mi SE 16.1 mph 24.2 mph N/A   Overcast
8:56 PM 28.4 °F 18.0 °F 24.8 °F 86% 30.13 in 5.0 mi SE 12.7 mph 18.4 mph N/A   Overcast
9:16 PM 28.4 °F 17.5 °F 24.8 °F 86% 30.12 in 7.0 mi SE 13.8 mph 21.9 mph N/A   Overcast
9:37 PM 30.2 °F 21.3 °F 24.8 °F 80% 30.13 in 7.0 mi SSE 10.4 mph - N/A   Overcast
9:56 PM 30.2 °F 19.8 °F 24.8 °F 80% 30.11 in 7.0 mi SE 13.8 mph 18.4 mph N/A   Overcast
10:16 PM 30.2 °F 19.8 °F 26.6 °F 86% 30.08 in 7.0 mi SE 13.8 mph 18.4 mph N/A   Overcast
10:36 PM 30.2 °F 19.8 °F 26.6 °F 86% 30.08 in 4.0 mi SE 13.8 mph 20.7 mph N/A   Overcast
11:18 PM - - - N/A% - - North - - N/A   Unknown
11:36 PM - - - N/A% - 4.0 mi SSE 9.2 mph 19.6 mph N/A   Unknown
11:56 PM 32.0 °F 21.6 °F 28.4 °F 87% 30.04 in 4.0 mi SSE 15.0 mph 25.3 mph N/A   Overcast